When you browse on this site, cookies collect data to enhance your experience and personalize the content and advertising you see.
Visit our Privacy Policy to learn more. By continuing to use the site, you agree to this use of cookies and data.
  • In Schweiz
  • Länderverzeichnis
  • Für 7 Tage
  • Wassertemperatur
  • Satellitenkarten
  • Wetterkarte
  • Widgets
  • user-avatar
    Anmelden

    Stündliche Wetter Xiulin

    Heute, 19 Juli, Freitag

    Zeit Temperatur Niederschläge Wind Luftdruck Luftfeuchtigkeit
    00:00 +26°C° 0 mm 4 m/S 748 mmHg 88%
    01:00 +26°C° 0 mm 4 m/S 748 mmHg 84%
    02:00 +26°C° 0 mm 4 m/S 748 mmHg 84%
    03:00 +26°C° 0 mm 4 m/S 748 mmHg 83%
    04:00 +26°C° 0 mm 4 m/S 748 mmHg 83%
    05:00 +26°C° 0 mm 4 m/S 748 mmHg 83%
    06:00 +27°C° 0 mm 4 m/S 749 mmHg 83%
    07:00 +28°C° 0 mm 3 m/S 749 mmHg 87%
    08:00 +29°C° 0 mm 4 m/S 749 mmHg 84%
    09:00 +30°C° 0 mm 4 m/S 749 mmHg 81%
    10:00 +33°C° 0 mm 4 m/S 749 mmHg 79%
    11:00 +33°C° 0.1 mm 4 m/S 749 mmHg 76%
    12:00 +34°C° 0.1 mm 4 m/S 748 mmHg 74%
    13:00 +35°C° 0.1 mm 4 m/S 747 mmHg 71%
    14:00 +35°C° 0 mm 4 m/S 747 mmHg 71%
    15:00 +35°C° 0 mm 4 m/S 747 mmHg 71%
    16:00 +34°C° 0 mm 4 m/S 746 mmHg 71%
    17:00 +33°C° 0 mm 3 m/S 747 mmHg 74%
    18:00 +31°C° 0 mm 2 m/S 747 mmHg 76%
    19:00 +30°C° 0 mm 1 m/S 748 mmHg 79%
    20:00 +30°C° 0 mm 1 m/S 748 mmHg 80%
    21:00 +27°C° 0 mm 0 m/S 748 mmHg 80%
    22:00 +27°C° 0 mm 0 m/S 749 mmHg 80%
    23:00 +29°C° 0 mm 1 m/S 748 mmHg 81%

    Morgen, 20 Juli, Samstag

    Zeit Temperatur Niederschläge Wind Luftdruck Luftfeuchtigkeit
    00:00 +28°C° 0 mm 1 m/S 748 mmHg 83%
    01:00 +28°C° 0 mm 1 m/S 748 mmHg 84%
    02:00 +28°C° 0 mm 1 m/S 748 mmHg 84%
    03:00 +28°C° 0 mm 1 m/S 748 mmHg 85%
    04:00 +27°C° 0 mm 2 m/S 748 mmHg 86%
    05:00 +28°C° 0 mm 1 m/S 748 mmHg 83%
    06:00 +29°C° 0 mm 1 m/S 748 mmHg 81%
    07:00 +30°C° 0 mm 1 m/S 749 mmHg 78%
    08:00 +31°C° 0 mm 1 m/S 749 mmHg 74%
    09:00 +32°C° 0 mm 1 m/S 749 mmHg 69%
    10:00 +32°C° 0 mm 0 m/S 749 mmHg 65%
    11:00 +34°C° 0 mm 1 m/S 749 mmHg 62%
    12:00 +35°C° 0 mm 1 m/S 748 mmHg 59%
    13:00 +36°C° 0 mm 1 m/S 748 mmHg 56%
    14:00 +36°C° 0 mm 1 m/S 747 mmHg 57%
    15:00 +36°C° 0 mm 1 m/S 747 mmHg 58%
    16:00 +36°C° 0 mm 1 m/S 746 mmHg 59%
    17:00 +34°C° 0 mm 1 m/S 747 mmHg 63%
    18:00 +33°C° 0 mm 1 m/S 747 mmHg 67%
    19:00 +31°C° 0 mm 1 m/S 747 mmHg 72%
    20:00 +31°C° 0 mm 1 m/S 747 mmHg 74%
    21:00 +30°C° 0 mm 1 m/S 748 mmHg 76%
    22:00 +30°C° 0 mm 1 m/S 748 mmHg 79%
    23:00 +30°C° 0 mm 1 m/S 748 mmHg 79%

    übermorgen, 21 Juli, Sonntag

    Zeit Temperatur Niederschläge Wind Luftdruck Luftfeuchtigkeit
    00:00 +29°C° 0 mm 1 m/S 748 mmHg 80%
    01:00 +29°C° 0 mm 1 m/S 748 mmHg 81%
    02:00 +27°C° 0 mm 0 m/S 747 mmHg 81%
    03:00 +27°C° 0 mm 0 m/S 747 mmHg 82%
    04:00 +26°C° 0 mm 0 m/S 747 mmHg 83%
    05:00 +27°C° 0 mm 0 m/S 748 mmHg 81%
    06:00 +28°C° 0 mm 0 m/S 748 mmHg 79%
    07:00 +29°C° 0 mm 0 m/S 748 mmHg 77%
    08:00 +32°C° 0 mm 1 m/S 748 mmHg 73%
    09:00 +33°C° 0 mm 1 m/S 748 mmHg 69%
    10:00 +35°C° 0 mm 1 m/S 748 mmHg 66%
    11:00 +35°C° 0 mm 1 m/S 748 mmHg 63%
    12:00 +36°C° 0 mm 1 m/S 747 mmHg 61%
    13:00 +37°C° 0 mm 1 m/S 747 mmHg 58%
    14:00 +37°C° 0 mm 1 m/S 746 mmHg 60%
    15:00 +36°C° 0 mm 1 m/S 746 mmHg 61%
    16:00 +36°C° 0 mm 1 m/S 745 mmHg 63%
    17:00 +35°C° 0 mm 1 m/S 745 mmHg 66%
    18:00 +34°C° 0 mm 1 m/S 746 mmHg 70%
    19:00 +33°C° 0 mm 1 m/S 746 mmHg 74%
    20:00 +32°C° 0.2 mm 1 m/S 746 mmHg 77%
    21:00 +31°C° 0.2 mm 2 m/S 747 mmHg 80%
    22:00 +31°C° 0.2 mm 2 m/S 747 mmHg 83%
    23:00 +30°C° 0.1 mm 2 m/S 747 mmHg 84%

    22 Juli, Montag

    Zeit Temperatur Niederschläge Wind Luftdruck Luftfeuchtigkeit
    00:00 +30°C° 0.1 mm 2 m/S 747 mmHg 84%
    01:00 +29°C° 0.1 mm 2 m/S 746 mmHg 85%
    02:00 +29°C° 0 mm 2 m/S 746 mmHg 87%
    03:00 +29°C° 0 mm 3 m/S 746 mmHg 89%
    04:00 +29°C° 0 mm 3 m/S 746 mmHg 91%
    05:00 +29°C° 0 mm 3 m/S 746 mmHg 89%
    06:00 +30°C° 0 mm 4 m/S 746 mmHg 88%
    07:00 +32°C° 0 mm 4 m/S 747 mmHg 86%
    08:00 +33°C° 0.2 mm 4 m/S 747 mmHg 82%
    09:00 +35°C° 0.2 mm 5 m/S 747 mmHg 77%
    10:00 +36°C° 0.2 mm 5 m/S 747 mmHg 73%
    11:00 +37°C° 0.1 mm 5 m/S 746 mmHg 70%
    12:00 +37°C° 0.1 mm 5 m/S 746 mmHg 67%
    13:00 +39°C° 0.1 mm 5 m/S 745 mmHg 65%
    14:00 +39°C° 0 mm 5 m/S 745 mmHg 66%
    15:00 +38°C° 0 mm 4 m/S 744 mmHg 67%
    16:00 +38°C° 0 mm 4 m/S 744 mmHg 68%
    17:00 +36°C° 0 mm 4 m/S 744 mmHg 72%
    18:00 +35°C° 0 mm 4 m/S 745 mmHg 75%
    19:00 +33°C° 0 mm 4 m/S 745 mmHg 79%
    20:00 +33°C° 0 mm 4 m/S 745 mmHg 79%
    21:00 +33°C° 0 mm 5 m/S 745 mmHg 79%
    22:00 +32°C° 0 mm 5 m/S 746 mmHg 79%
    23:00 +32°C° 0 mm 4 m/S 745 mmHg 79%

    23 Juli, Dienstag

    Zeit Temperatur Niederschläge Wind Luftdruck Luftfeuchtigkeit
    00:00 +32°C° 0 mm 4 m/S 745 mmHg 80%
    01:00 +30°C° 0 mm 4 m/S 745 mmHg 81%
    02:00 +30°C° 0 mm 4 m/S 745 mmHg 81%
    03:00 +30°C° 0 mm 4 m/S 745 mmHg 82%
    04:00 +30°C° 0 mm 5 m/S 745 mmHg 82%
    05:00 +30°C° 0 mm 5 m/S 745 mmHg 82%
    06:00 +32°C° 0 mm 5 m/S 745 mmHg 83%
    07:00 +32°C° 0 mm 5 m/S 746 mmHg 83%
    08:00 +34°C° 0 mm 5 m/S 746 mmHg 78%
    09:00 +35°C° 0 mm 5 m/S 746 mmHg 74%
    10:00 +37°C° 0 mm 5 m/S 746 mmHg 69%
    11:00 +37°C° 0 mm 4 m/S 745 mmHg 67%
    12:00 +38°C° 0 mm 4 m/S 745 mmHg 64%
    13:00 +38°C° 0 mm 4 m/S 745 mmHg 62%
    14:00 +38°C° 0.2 mm 4 m/S 744 mmHg 63%
    15:00 +38°C° 0.2 mm 3 m/S 744 mmHg 64%
    16:00 +38°C° 0.2 mm 3 m/S 744 mmHg 65%
    17:00 +36°C° 1.3 mm 2 m/S 744 mmHg 71%
    18:00 +35°C° 1.3 mm 2 m/S 745 mmHg 77%
    19:00 +32°C° 1.3 mm 2 m/S 745 mmHg 83%
    20:00 +32°C° 0.2 mm 2 m/S 745 mmHg 84%
    21:00 +31°C° 0.2 mm 3 m/S 746 mmHg 85%
    22:00 +31°C° 0.2 mm 3 m/S 746 mmHg 87%
    23:00 +30°C° 0.3 mm 3 m/S 746 mmHg 87%

    24 Juli, Mittwoch

    Zeit Temperatur Niederschläge Wind Luftdruck Luftfeuchtigkeit
    00:00 +30°C° 0.3 mm 3 m/S 745 mmHg 88%
    01:00 +30°C° 0.3 mm 3 m/S 745 mmHg 89%
    02:00 +29°C° 0.5 mm 3 m/S 745 mmHg 90%
    03:00 +29°C° 0.5 mm 3 m/S 745 mmHg 91%
    04:00 +29°C° 0.5 mm 2 m/S 745 mmHg 92%
    05:00 +30°C° 0.1 mm 2 m/S 745 mmHg 90%
    06:00 +30°C° 0.1 mm 3 m/S 746 mmHg 89%
    07:00 +31°C° 0.1 mm 3 m/S 746 mmHg 87%
    08:00 +33°C° 0.2 mm 3 m/S 746 mmHg 82%
    09:00 +35°C° 0.2 mm 3 m/S 746 mmHg 78%
    10:00 +36°C° 0.2 mm 4 m/S 746 mmHg 73%
    11:00 +36°C° 0.4 mm 3 m/S 746 mmHg 71%
    12:00 +37°C° 0.4 mm 3 m/S 746 mmHg 69%
    13:00 +37°C° 0.4 mm 3 m/S 746 mmHg 66%
    14:00 +37°C° 1.5 mm 2 m/S 746 mmHg 68%
    15:00 +37°C° 1.5 mm 2 m/S 745 mmHg 70%
    16:00 +36°C° 1.5 mm 2 m/S 745 mmHg 72%
    17:00 +35°C° 1.6 mm 2 m/S 746 mmHg 78%
    18:00 +32°C° 1.6 mm 2 m/S 746 mmHg 84%
    19:00 +31°C° 1.6 mm 1 m/S 746 mmHg 90%
    20:00 +30°C° 0.5 mm 1 m/S 747 mmHg 90%
    21:00 +30°C° 0.5 mm 1 m/S 747 mmHg 90%
    22:00 +30°C° 0.5 mm 1 m/S 747 mmHg 91%
    23:00 +30°C° 1.2 mm 1 m/S 747 mmHg 91%
    Mehr zeigen